{"data":{"norad_id":39768,"intl_designator":"2014-029C","name":"SOCRATES","alt_names":[],"object_type":"PAYLOAD","status":"ACTIVE","operator":null,"country":"JPN","launch_date":"2014-05-24","launch_site_code":"TANSC","launch_vehicle":null,"mission":null,"orbit_class":"UNKNOWN","rcs_meters":0.332,"size_class":null,"mass_kg":null,"dimensions":null,"purposes":[],"wikipedia_slug":null,"has_3d_model":false,"image_url":null,"decayed_at":null,"tle_current":{"epoch":"2026-09-19T13:06:47.025504Z","epoch_age_seconds":119574,"freshness":"FRESH","line1":"1 39768U 14029C   26262.54637761  .00001427  00000+0  13569-3 0  9996","line2":"2 39768  97.9155  16.7930 0006828  37.8925 322.2775 14.95068650668502","mean_motion":14.9506865,"eccentricity":0.0006828,"inclination_deg":97.9155,"raan_deg":16.793,"arg_perigee_deg":37.8925,"mean_anomaly_deg":322.2775,"bstar":0.00013569,"rev_number":66850,"period_min":96.316647399435,"perigee_km":577.40718549732,"apogee_km":586.91216663816,"semimajor_km":6960.2966760677,"source":"CELESTRAK","updated_at":"2026-09-20T09:00:13.971833Z"}}}